CSS (TIANHE-1)
1 48274U 21035A   25286.65831602  .00047162  00000-0  53180-3 0  9990
2 48274  41.4664  21.8271 0003189 239.2264 120.8261 15.61694077254683
TUBIN
1 48900U 21059X   25286.16738369  .00137706  00000-0  85464-3 0  9998
2 48900  97.6748 106.8798 0002004 132.2420 227.9015 15.76612366239703
LEDSAT
1 49069U 21073D   25286.23754732  .03113040  24107-5  14793-2 0  9994
2 49069  97.3545  15.5168 0009728 282.9196  77.1007 16.21364739231204
CUTE
1 49263U 21088D   25286.06854948  .00047688  00000-0  74841-3 0  9990
2 49263  97.4393   6.4262 0006841 128.9109 231.2755 15.53510397223865
TeikyoSat 4
1 49396U 21102B   25286.36927197  .00003606  00000-0  23635-3 0  9991
2 49396  97.3991 320.2221 0013905  65.7744 294.4936 15.08235131215503
Z-Sat
1 49399U 21102E   25286.58109491  .00007184  00000-0  38004-3 0  9998
2 49399  97.3677 324.3372 0018369  32.1424 328.0925 15.15603380216057
KOSEN 1
1 49402U 21102H   25286.58201307  .00011729  00000-0  51145-3 0  9993
2 49402  97.3569 328.7517 0015063   4.5335 355.6035 15.22221574216443
HO-113
1 50466U 21131B   25286.65916433  .00000845  00000-0  27676-3 0  9997
2 50466  98.5073  15.3838 0005231 114.5858 245.5877 14.40987327199604
SNUGLITE 2
1 52899U 22065F   25286.64513324  .00002001  00000-0  39436-3 0  9990
2 52899  98.1872  67.5484 0008657  80.2595 279.9585 14.63579657174920
UmKA 1 (RS40S)
1 57172U 23091G   25286.60789581  .00009372  00000-0  47677-3 0  9999
2 57172  97.5432 341.3538 0012347 256.1003 103.8857 15.16988397126575
CubeBel-2 (EU11S)
1 57175U 23091K   25286.60228027  .00015548  00000-0  68270-3 0  9999
2 57175  97.5429 343.3406 0009986 260.4181  99.5926 15.21982934126700
ENSO
1 58470U 23185J   25286.61753877  .00308692  00000-0  13998-2 0  9990
2 58470  97.3542   7.3825 0004877 288.5025  71.5714 15.83101751104740
SONATE-2
1 59112U 24043Q   25286.53298325  .00032948  00000-0  79954-3 0  9994
2 59112  97.5290  60.7540 0009955  26.3589 333.8162 15.40920885 89695
MO-122
1 60209U 24125G   25286.50814310  .00035921  00000-0  84952-3 0  9997
2 60209  97.2620 137.0240 0017972  47.4618 312.8143 15.41560123 71310
GRBBeta
1 60237U 24128C   25286.59563430  .00006292  00000-0  45305-3 0  9992
2 60237  61.9926 359.8182 0056977  83.9268 276.8312 15.03921931 69142
Curium One
1 60242U 24128H   25286.45901715  .00012537  00000-0  80769-3 0  9997
2 60242  61.9821 356.4833 0056637  80.3352 280.4132 15.07363072 69192
ROBUSTA-3A
1 60243U 24128J   25286.50452541  .00011702  00000-0  76726-3 0  9993
2 60243  61.9895 357.6065 0056501  77.8759 282.8657 15.06779982 69183
CatSat
1 60246U 24125J   25286.15706231  .00041332  00000-0  11755-2 0  9994
2 60246  97.2436 134.3975 0038238   8.6154 351.5738 15.35281034 69213
HYPERVIEW-1G (RS66S)
1 61772U 24199AP  25286.62918850  .00041429  00000-0  96804-3 0  9990
2 61772  97.3300 155.5591 0014059  97.0132 263.2715 15.41959526 96333
AO-123
1 61781U 24199AY  25286.61178453  .00010837  00000-0  37026-3 0  9996
2 61781  97.3330 152.7691 0016997 107.8349 252.4748 15.30328107 96147
ZIMSAT 2
1 61783U 24199BA  25286.64521344  .00093135  00000-0  14241-2 0  9997
2 61783  97.3234 157.5795 0012904  90.3422 269.9310 15.53978656 99621
HADES-R (SO-124)
1 62690U 25009CK  25286.31703711  .00112046  00000-0  25972-2 0  9996
2 62690  97.3971   7.4483 0001523 333.2829  26.8340 15.41988754 41424
HYDRA-T
1 62692U 25009CM  25286.59527942  .00100536  00000-0  22823-2 0  9991
2 62692  97.3971   7.8391 0001594 314.8434  45.2684 15.42662859 41470
JINJUSat 1B
1 63210U 25052A   25286.62869394  .00019052  00000-0  78758-3 0  9991
2 63210  97.4225 179.2735 0001930 206.2516 153.8624 15.24026058 32425
NUSHSAT 1
1 63211U 25052B   25286.65718220  .00023129  00000-0  93668-3 0  9993
2 63211  97.4211 179.3583 0001677 217.1330 142.9792 15.24677596 32431
TEVEL2-4
1 63213U 25052D   25286.63548443  .00020240  00000-0  83233-3 0  9999
2 63213  97.4130 179.0056 0000478 262.0496  98.0687 15.24190366 32423
TEVEL2-5
1 63214U 25052E   25286.63859870  .00021220  00000-0  87363-3 0  9996
2 63214  97.4129 179.0025 0000497 265.6577  94.4603 15.24142323 32426
TEVEL2-6
1 63215U 25052F   25286.64407324  .00021933  00000-0  90385-3 0  9990
2 63215  97.4130 178.9984 0000521 269.3482  90.7696 15.24101730 32423
TEVEL2-1
1 63217U 25052H   25286.60933568  .00020952  00000-0  87083-3 0  9993
2 63217  97.4105 178.8229 0001095 316.9913  43.1238 15.23822652 32418
TEVEL2-3
1 63218U 25052J   25286.60919891  .00021070  00000-0  87540-3 0  9997
2 63218  97.4106 178.8258 0001162 318.1206  41.9942 15.23835477 32413
TEVEL2-2
1 63219U 25052K   25286.61009862  .00020784  00000-0  86393-3 0  9993
2 63219  97.4105 178.8236 0001129 317.9314  42.1836 15.23820859 32412
TEVEL2-9
1 63237U 25052AD  25286.25415333  .00024578  00000-0  10621-2 0  9992
2 63237  97.4166 178.2569 0005579 309.1285  50.9455 15.22456084 32334
TEVEL2-7
1 63238U 25052AE  25286.65733181  .00020338  00000-0  88235-3 0  9998
2 63238  97.4170 178.6399 0005632 307.3712  52.7011 15.22361357 32392
TEVEL2-8
1 63239U 25052AF  25286.20176662  .00023200  00000-0  10071-2 0  9998
2 63239  97.4169 178.1773 0005651 309.3046  50.7689 15.22314629 32327
HYDRA-W
1 63490U 25052BL  25285.93662568  .00070828  00000-0  22684-2 0  9992
2 63490  97.4105 179.2897 0006352 303.2555  56.8077 15.32094284 32389
HADES-ICM (SO-125)
1 63492U 25052BN  25285.80884399  .00063796  00000-0  21138-2 0  9997
2 63492  97.4113 179.0200 0007028 308.1170  51.9437 15.31028346 32352
